www.pogodaiklimat.ru

Погода и климат >> Архив погоды >> Иран >> Харк


ПОГОДА на Харке

  • Прогноз погоды на Харке
  • Монитор погоды на Харке

АРХИВ ПОГОДЫ на Харке

Время (UTC), дата Ветер
(напр.,м/с)
 
Видим.   Явления Облачность Т
(С)
Тd
(С)
f
(%)
Тe
(С)
Тes
(С)
Комфортность P
(гПа)
Po
(гПа)
Тmin
(С)
Tmax
(С)
R
(мм)
R24
(мм)
S
(см)
09 14.01 ЮВ 7 7000 м дымка 8/1 1200 м
[Sc Ac As]
+22.2 +19.3 84 +28 +29 душно 1016.4 1015.9
12 14.01 ЮВ 7 7000 м дымка 8/3 1200 м
[Sc Ac As]
+22.0 +19.3 85 +27 +28 душно 1014.7 1014.2
15 14.01 ЮВ 5 7000 м дымка 6/0
[Ac As]
+21.4 +19.3 88 +26 +26 душно 1015.9 1015.4 +22.5
06 15.01 В 2 10 км 10/8 900 м
[Cb calv As op]
+19.7 +15.8 78 +22 +23 комфорт 1020.5 1020.0 0.2
09 15.01 В 5 10 км 10/5 900 м
[Cb calv As op]
+20.0 +16.0 78 +22 +23 комфорт 1018.9 1018.4
12 15.01 В 5 10 км 10/4 1200 м
[Sc As op]
+21.0 +16.6 76 +25 +25 комфорт 1017.7 1017.2
15 15.01 В 6 10 км в посл. час дождь 8/4 1200 м
[Sc Ac As]
+20.5 +17.7 84 +24 +24 комфорт 1017.5 1017.0 +21.8
03 16.01 В 2 6000 м дымка 6/4 1200 м
[Sc Ac As]
+18.9 +16.5 86 +21 +21 комфорт 1016.8 1016.3 +18.2
06 16.01 В 2 10 км 5/0
[Ac As]
+20.8 +18.2 85 +26 +29 душно 1017.8 1017.3
09 16.01 В 6 10 км 3/0
[Ci fib]
+22.4 +18.8 80 +28 +31 душно 1015.8 1015.3
12 16.01 ЮВ 4 10 км 6/0
[Ac As]
+22.7 +20.0 85 +29 +30 очень
душно
1014.0 1013.5
15 16.01 ЮВ 5 10 км 8/3 1200 м
[Sc Ac As]
+21.4 +19.0 86 +26 +26 душно 1013.3 1012.8 +23.1
03 17.01 ЮВ 13 10 км 8/3 1200 м
[Sc Ac As]
+22.0 +17.5 76 +27 +27 душно 1008.6 1008.1 +21.3
06 17.01 ЮВ 14 10 км 8/5 900 м
[Cb calv Ac As]
+22.9 +19.4 81 +29 +29 очень
душно
1010.3 1009.8 0.2
09 17.01 З 15 4000 м пыльный позёмок ясно +18.5 +10.8 61 +17 +17 1013.4 1012.9
12 17.01 З 13 4000 м пыль 3/0
[Ac As]
+16.4 +9.6 64 +14 +14 1015.4 1014.9
15 17.01 З 8 3000 м пыль 3/0
[Ac As]
+15.2 +8.3 63 +13 +13 1017.5 1017.0 +23.8
03 18.01 СЗ 6 3000 м пыль ясно +14.1 +7.7 65 +12 +12 1020.2 1019.7 +14.1
06 18.01 С 4 3000 м пыль 4/0
[Ac As]
+14.7 +7.2 61 +14 +16 1022.2 1021.7
09 18.01 СЗ 4 4000 м пыль ясно +15.7 +8.0 60 +15 +21 1020.5 1020.0
12 18.01 СЗ 6 4000 м пыль ясно +16.0 +7.0 55 +15 +16 1019.0 1018.5
15 18.01 СЗ 6 4000 м пыль ясно +15.4 +6.0 53 +14 +14 1019.6 1019.1 +16.3
06 19.01 СЗ 9 10 км 1/1 1200 м
[Cu hum]
+14.0 +1.9 44 +12 +12 1023.0 1022.5
09 19.01 СЗ 8 10 км 1/1 1200 м
[Cu hum]
+14.2 +2.5 45 +12 +14 1022.3 1021.8
12 19.01 СЗ 7 10 км ясно +14.0 +2.3 45 +12 +13 1021.3 1020.8
15 19.01 СЗ 8 10 км ясно +13.0 +2.7 50 +10 +10 1021.8 1021.3 +14.7
03 20.01 СЗ 9 10 км ясно +11.6 +4.7 63 +8 +8 1023.5 1023.0 +11.3
06 20.01 СЗ 9 10 км ясно +13.1 +5.8 61 +10 +11 1025.1 1024.6
09 20.01 СЗ 8 10 км ясно +14.1 +6.2 59 +12 +14 1023.8 1023.3
12 20.01 СЗ 8 10 км ясно +14.3 +7.0 61 +12 +13 1022.0 1021.5
15 20.01 З 8 10 км ясно +13.9 +7.6 66 +11 +11 1022.1 1021.6 +14.5
03 21.01 З 8 10 км 3/0
[Ci fib]
+12.8 +7.2 69 +10 +10 1022.7 1022.2 +12.7
06 21.01 СЗ 7 10 км 4/0
[Ci sp]
+13.8 +6.6 62 +12 +13 1023.9 1023.4

 

Местоположение метеостанции Харк (Иран): широта 29.26 долгота 50.32 высота над уровнем моря 3 м.

В архиве по умолчанию представлена погода на Харке за последнюю неделю. Архивные данные за месяц целиком и за предыдущие месяцы, начиная с января 2011 года, Вы можете получить, выбрав интересующий диапазон дат из раскрывающегося списка и нажав кнопку "Ввод!".


*Определитесь, кто Вы:
робот инопланетянин человек

Внимание! Время в таблицах - всемирное. Для получения местного времени необходимо прибавить поправку, которая равна 3.5 ч.

Смотрите также архив погоды в соседних городах и на ближайших метеорологических станциях:

Погода в Бушир аэропорту (Иран) (59 км)
Погода в Бушире (Иран) (62 км)
Погода в Гечсаране (Иран) (137 км)
Погода в Нувасибе (Кувейт) (175 км)
Погода в Умм-Аль-Марадим (Кувейт) (175 км)
Погода в Омидийе (Иран) (179 км)
Погода в Эль-Фао (Ирак) (193 км)
Погода на Бубияне (Кувейт) (196 км)
Погода в Ясудже (Иран) (198 км)
Погода Остров Файлака (Кувейт) (199 км)

Пояснения к столбцам:

Ветер - указаны скорость ветра в м/с - средняя за 10 мин, порывы в срок и между сроками (в фигурных скобках) и направление, откуда дует ветер: С - северный, СВ - северо-восточный, В - восточный, ЮВ - юго-восточный, Ю - южный, ЮЗ - юго-западный, З - западный, СЗ - северо-западный.
Видимость - горизонтальная дальность видимости в метрах или километрах. При видимости от 1 до 10 км при отсутствии осадков обычно наблюдается дымка, при ухудшении видимости до 1 км и менее - туман. В сухую погоду видимость может ухудшаться дымом, пылью или мглою.
Явления - указаны атмосферные явления, наблюдавшиеся в срок или в последний час перед сроком; фигурными скобками обозначены явления, наблюдавшиеся между сроками (за 1-3 часа до срока); квадратными скобками обозначены град или гололедные отложения с указанием их диаметра в мм.
Облачность - указаны через наклонную черту общая и нижняя облачность в баллах и высота нижней границы облаков в метрах; квадратными скобками обозначены формы облаков: Ci - перистые, Cs - перисто-слоистые, Cc - перисто-кучевые, Ac - высококучевые, As - высокослоистые, Sc - слоисто-кучевые, Ns - слоисто-дождевые, Cu - кучевые, Cb - кучево-дождевые. Подробнее классификацию облаков см. в Атласе облаков (PDF).
T - Температура воздуха - температура, измеренная на высоте 2 м над землей.
Td - Температура точки росы - температура, при понижении до которой содержащийся в воздухе водяной пар достигнет насыщения.
f - Относительная влажность воздуха - влажноcть воздуха, измеренная на высоте 2 м над землей.
Te - Эффективная температура - температура, которую ощущает одетый по сезону человек в тени. Характеристика душности погоды. При расчете учитывается влияние влажности воздуха и скорости ветра на теплоощущения человека.
Tes - Эффективная температура на солнце - температура, которую ощущает человек, с поправкой на солнечный нагрев. Характеристика знойности погоды. Зависит от высоты солнца над горизонтом, облачности и скорости ветра. Ночью, в пасмурную погоду, а также при ветре 12 м/с и более поправка равна нулю.
P - Атмосферное давление - приведенное к уровню моря атмосферное давление.
Po - Атмосферное давление - измеренное на уровне метеостанции атмосферное давление.
Tmin - Минимальная температура - минимум температуры воздуха на высоте 2 м над землей.
Tmax - Максимальная температура - максимум температуры воздуха на высоте 2 м над землей.
R - Количество осадков - Количество выпавших осадков за период времени, мм. При наведении курсора мыши на число - период времени, за который выпало указанное количество осадков.
R24 - Количество осадков - Количество выпавших осадков за 24 часа, мм.
S - Снежный покров - Высота снежного покрова, см. При наведении курсора мыши на число - состояние снежного покрова и степень покрытия местности в баллах.